Weather History for St. Joseph, MO

Change the Weather History Date:

Friday, May 3, 2013

  Actual Average Record
Temperature  
Mean Temperature 39 °F 60 °F  
Max Temperature 41 °F 71 °F 90 °F (1968)
Min Temperature 36 °F 48 °F 29 °F (2005)
Degree Days  
Heating Degree Days 26 6  
Month to date heating degree days 64 20  
Since 1 July heating degree days 5497 5358  
Cooling Degree Days 0 1  
Month to date cooling degree days 0 3  
Year to date cooling degree days 16 24  
Moisture  
Dew Point 34 °F    
Average Humidity 81    
Maximum Humidity 92    
Minimum Humidity 70    
Precipitation  
Precipitation 0.05 in 0.19 in 2.25 in (1958)
Month to date precipitation 0.86 0.56  
Year to date precipitation 7.37 8.09  
Sea Level Pressure  
Sea Level Pressure 30.12 in    
Wind  
Wind Speed 17 mph (North)    
Max Wind Speed 26 mph    
Max Gust Speed 33 mph    
Visibility 9 miles    
Events Rain    
T = Trace of Precipitation, MM = Missing Value Source: NWS Daily Summary

Daily Weather History Graph

Daily Weather History Graph

Search for Another Location

Airport:

Trip Planner

Search our weather history database for the weather conditions in past years. The results will help you decide how hot, cold, wet, or windy it might be!

Date:

Astronomy

May. 03, 2013 Rise Set
Actual Time 6:17 AM CDT 8:16 PM CDT
Civil Twilight 5:47 AM CDT 8:45 PM CDT
Nautical Twilight 5:12 AM CDT 9:21 PM CDT
Astronomical Twilight 4:33 AM CDT 10:00 PM CDT
Moon 2:41 AM CDT (5/3) 2:12 PM CDT (5/3)
Length of Visible Light 14h 57m
Length of Day
13h 58m
Last Quarter, 37% of the Moon is Illuminated
May 3
Last Quarter
May 9
New
May 17
First Quarter
May 24
Full
May 31
Last Quarter

Hourly Weather History & Observations

Time (CDT) Temp. Windchill Dew Point Humidity Pressure Visibility Wind Dir Wind Speed Gust Speed Precip Events Conditions
12:53 AM 39.0 °F 32.8 °F 34.0 °F 82% 30.34 in 10.0 mi NNW 9.2 mph - N/A   Overcast
1:53 AM 39.0 °F 31.8 °F 34.0 °F 82% 30.32 in 10.0 mi North 11.5 mph - N/A   Overcast
2:53 AM 39.0 °F 31.8 °F 33.1 °F 79% 30.27 in 10.0 mi North 11.5 mph - N/A   Overcast
3:53 AM 37.9 °F 32.1 °F 33.1 °F 83% 30.27 in 10.0 mi North 8.1 mph - N/A   Overcast
4:53 AM 37.9 °F 29.2 °F 32.0 °F 79% 30.25 in 10.0 mi North 15.0 mph - N/A   Overcast
5:53 AM 37.9 °F 28.9 °F 30.9 °F 76% 30.24 in 10.0 mi North 16.1 mph - N/A   Overcast
6:53 AM 37.9 °F 29.2 °F 30.9 °F 76% 30.25 in 10.0 mi North 15.0 mph - N/A   Overcast
7:53 AM 37.9 °F 28.9 °F 32.0 °F 79% 30.24 in 10.0 mi NNW 16.1 mph - N/A   Overcast
8:53 AM 39.0 °F 28.8 °F 32.0 °F 76% 30.20 in 10.0 mi North 21.9 mph 26.5 mph N/A   Overcast
9:53 AM 39.9 °F 30.5 °F 33.1 °F 77% 30.18 in 10.0 mi NNW 19.6 mph - N/A   Overcast
10:53 AM 39.9 °F 30.2 °F 32.0 °F 73% 30.17 in 10.0 mi NNW 20.7 mph 26.5 mph N/A   Overcast
11:53 AM 39.9 °F 30.5 °F 30.9 °F 70% 30.16 in 10.0 mi NNW 19.6 mph - N/A   Overcast
12:36 PM 39.2 °F 28.7 °F 30.2 °F 70% 30.12 in 10.0 mi NNW 23.0 mph 31.1 mph N/A   Overcast
12:53 PM 39.9 °F 30.0 °F 32.0 °F 73% 30.13 in 10.0 mi North 21.9 mph 25.3 mph N/A   Overcast
1:40 PM 39.2 °F 29.8 °F 32.0 °F 75% 30.10 in 10.0 mi NNW 18.4 mph 31.1 mph N/A   Overcast
1:53 PM 39.9 °F 29.7 °F 32.0 °F 73% 30.11 in 10.0 mi North 23.0 mph 28.8 mph N/A   Overcast
2:53 PM 39.9 °F 29.2 °F 32.0 °F 73% 30.10 in 10.0 mi NNW 25.3 mph 29.9 mph N/A   Overcast
3:53 PM 39.0 °F 29.0 °F 35.1 °F 86% 30.09 in 9.0 mi North 20.7 mph 27.6 mph 0.00 in Rain Light Rain
4:53 PM 39.0 °F 29.0 °F 35.1 °F 86% 30.08 in 9.0 mi North 20.7 mph 33.4 mph 0.01 in Rain Light Rain
5:23 PM 37.4 °F 27.5 °F 35.6 °F 93% 30.05 in 8.0 mi North 18.4 mph 26.5 mph 0.01 in Rain Light Rain
5:49 PM 37.4 °F 27.5 °F 35.6 °F 93% 30.05 in 7.0 mi North 18.4 mph - 0.03 in Rain Light Rain
5:53 PM 37.9 °F 28.5 °F 36.0 °F 93% 30.06 in 7.0 mi North 17.3 mph - 0.03 in Rain Light Rain
6:53 PM 37.9 °F 29.6 °F 36.0 °F 93% 30.06 in 10.0 mi North 13.8 mph 20.7 mph 0.00 in Rain Light Rain
7:09 PM 37.4 °F 27.8 °F 35.6 °F 93% 30.03 in 9.0 mi North 17.3 mph 20.7 mph 0.00 in   Overcast
7:37 PM 37.4 °F 28.5 °F 35.6 °F 93% 30.03 in 2.5 mi North 15.0 mph - 0.00 in Rain Light Rain
7:53 PM 37.9 °F 30.5 °F 36.0 °F 93% 30.04 in 3.0 mi North 11.5 mph - 0.00 in   Overcast
8:16 PM 37.4 °F 29.3 °F 35.6 °F 93% 30.01 in 6.0 mi North 12.7 mph - 0.00 in Rain Light Rain
8:40 PM 37.4 °F 28.5 °F 35.6 °F 93% 30.01 in 6.0 mi North 15.0 mph - 0.00 in   Overcast
8:53 PM 37.9 °F 29.6 °F 36.0 °F 93% 30.02 in 8.0 mi North 13.8 mph - 0.00 in   Overcast
9:53 PM 37.9 °F 29.2 °F 34.0 °F 86% 30.01 in 10.0 mi North 15.0 mph - N/A   Overcast
10:53 PM 37.0 °F 26.7 °F 32.0 °F 82% 29.98 in 10.0 mi North 19.6 mph 27.6 mph 0.01 in   Overcast
11:53 PM 36.0 °F 27.1 °F 32.0 °F 86% 29.97 in 10.0 mi North 13.8 mph 21.9 mph N/A   Overcast